St. James, MN

1:20 AM CDT on May 25, 2017 (GMT -0500)
Saint James Municipal

Weather History for KJYG - April, 2012

Change the Weather History Date:

Sunday, April 8, 2012

  Actual Average Record
Temperature  
Mean Temperature 48 °F -  
Max Temperature 62 °F 53 °F 107 °F (1999)
Min Temperature 33 °F 32 °F 6 °F (2003)
Degree Days  
Heating Degree Days 18    
Moisture  
Dew Point 12 °F    
Average Humidity 29    
Maximum Humidity 56    
Minimum Humidity 4    
Precipitation  
Precipitation 0.00 in - - ()
Sea Level Pressure  
Sea Level Pressure 30.21 in    
Wind  
Wind Speed 7 mph (West)    
Max Wind Speed 25 mph    
Max Gust Speed 36 mph    
Visibility 10 miles    
Events      
Averages and records for this station are not official NWS values.
T = Trace of Precipitation, MM = Missing Value Source: NWS Daily Summary

Daily Weather History Graph

Daily Weather History Graph

Search for Another Location

Airport or City:

Trip Planner

Search our weather history database for the weather conditions in past years. The results will help you decide how hot, cold, wet, or windy it might be!

Date:

Astronomy

Apr. 08, 2012 Rise Set
Actual Time 6:46 AM CDT 7:54 PM CDT
Civil Twilight 6:16 AM CDT 8:24 PM CDT
Nautical Twilight 5:41 AM CDT 8:59 PM CDT
Astronomical Twilight 5:04 AM CDT 9:37 PM CDT
Moon 10:49 PM CDT (4/8) 7:37 AM CDT (4/8)
Length of Visible Light 14h 07m
Length of Day
13h 08m
Waning Gibbous, 95% of the Moon is Illuminated
Apr 8
Waning Gibbous
Apr 13
Last Quarter
Apr 21
New
Apr 29
First Quarter
May 5
Full

Hourly Weather History & Observations

Time (CDT) Temp. Windchill Dew Point Humidity Pressure Visibility Wind Dir Wind Speed Gust Speed Precip Events Conditions
12:14 AM 39.2 °F - 17.6 °F 42% 30.25 in 10.0 mi Calm Calm - N/A   Clear
12:35 AM 39.2 °F - 17.6 °F 42% 30.25 in 10.0 mi Calm Calm - N/A   Clear
12:54 AM 39.2 °F - 17.6 °F 42% 30.25 in 10.0 mi Calm Calm - N/A   Clear
1:15 AM 37.4 °F - 19.4 °F 48% 30.25 in 10.0 mi Calm Calm - N/A   Clear
1:35 AM 37.4 °F - 19.4 °F 48% 30.26 in 10.0 mi Calm Calm - N/A   Clear
1:55 AM 37.4 °F - 19.4 °F 48% 30.25 in 10.0 mi Calm Calm - N/A   Clear
2:15 AM 37.4 °F - 17.6 °F 45% 30.25 in 10.0 mi Calm Calm - N/A   Clear
2:35 AM 37.4 °F - 19.4 °F 48% 30.25 in 10.0 mi Calm Calm - N/A   Clear
2:55 AM 35.6 °F - 19.4 °F 52% 30.24 in 10.0 mi Calm Calm - N/A   Clear
3:15 AM 35.6 °F - 19.4 °F 52% 30.24 in 10.0 mi Calm Calm - N/A   Clear
3:34 AM 35.6 °F - 19.4 °F 52% 30.24 in 10.0 mi Calm Calm - N/A   Clear
3:55 AM 37.4 °F - 19.4 °F 48% 30.24 in 10.0 mi Calm Calm - N/A   Clear
4:15 AM 35.6 °F - 19.4 °F 52% 30.24 in 10.0 mi Calm Calm - N/A   Clear
4:34 AM 33.8 °F - 19.4 °F 56% 30.24 in 10.0 mi Calm Calm - N/A   Clear
4:55 AM 35.6 °F - 19.4 °F 52% 30.24 in 10.0 mi Calm Calm - N/A   Clear
5:15 AM 35.6 °F - 19.4 °F 52% 30.25 in 10.0 mi Calm Calm - N/A   Clear
5:55 AM 37.4 °F 30.3 °F 21.2 °F 52% 30.25 in 10.0 mi SW 10.4 mph - N/A   Overcast
6:15 AM 39.2 °F 31.2 °F 19.4 °F 45% 30.26 in 10.0 mi SW 13.8 mph - N/A   Overcast
6:35 AM 39.2 °F 37.0 °F 19.4 °F 45% 30.26 in 10.0 mi SW 3.5 mph - N/A   Overcast
6:55 AM 41.0 °F - 19.4 °F 42% 30.27 in 10.0 mi Calm Calm - N/A   Overcast
7:15 AM 41.0 °F - 21.2 °F 45% 30.27 in 10.0 mi Calm Calm - N/A   Overcast
7:34 AM 41.0 °F - 21.2 °F 45% 30.27 in 10.0 mi Calm Calm - N/A   Overcast
7:55 AM 42.8 °F - 19.4 °F 39% 30.27 in 10.0 mi Calm Calm - N/A   Overcast
8:15 AM 44.6 °F 38.1 °F 19.4 °F 37% 30.27 in 10.0 mi SW 13.8 mph - N/A   Overcast
8:34 AM 46.4 °F 45.2 °F 19.4 °F 34% 30.27 in 10.0 mi WSW 3.5 mph - N/A   Mostly Cloudy
8:54 AM 48.2 °F - 19.4 °F 32% 30.27 in 10.0 mi WSW 12.7 mph 19.6 mph N/A   Scattered Clouds
9:14 AM 50.0 °F - 17.6 °F 28% 30.26 in 10.0 mi WSW 13.8 mph - N/A   Scattered Clouds
9:35 AM 51.8 °F - 17.6 °F 26% 30.26 in 10.0 mi West 13.8 mph 18.4 mph N/A   Mostly Cloudy
9:54 AM 51.8 °F - 17.6 °F 26% 30.25 in 10.0 mi West 16.1 mph 19.6 mph N/A   Mostly Cloudy
10:15 AM 55.4 °F - 17.6 °F 23% 30.25 in 10.0 mi WSW 17.3 mph 23.0 mph N/A   Scattered Clouds
10:35 AM 57.2 °F - 15.8 °F 20% 30.24 in 10.0 mi WSW 20.7 mph 24.2 mph N/A   Scattered Clouds
10:55 AM 57.2 °F - 15.8 °F 20% 30.23 in 10.0 mi West 17.3 mph 27.6 mph N/A   Mostly Cloudy
11:14 AM 57.2 °F - 12.2 °F 17% 30.23 in 10.0 mi West 21.9 mph 26.5 mph N/A   Scattered Clouds
11:35 AM 59.0 °F - 12.2 °F 16% 30.22 in 10.0 mi West 18.4 mph 27.6 mph N/A   Clear
11:55 AM 60.8 °F - 12.2 °F 15% 30.22 in 10.0 mi West 20.7 mph 27.6 mph N/A   Scattered Clouds
12:15 PM 60.8 °F - 12.2 °F 15% 30.21 in 10.0 mi West 20.7 mph 26.5 mph N/A   Clear
12:35 PM 60.8 °F - 12.2 °F 15% 30.20 in 10.0 mi West 18.4 mph 27.6 mph N/A   Clear
12:54 PM 60.8 °F - 14.0 °F 16% 30.19 in 10.0 mi West 16.1 mph 25.3 mph N/A   Scattered Clouds
1:15 PM 59.0 °F - 15.8 °F 19% 30.19 in 10.0 mi NNW 17.3 mph 24.2 mph N/A   Clear
1:35 PM 59.0 °F - 17.6 °F 20% 30.19 in 10.0 mi NW 17.3 mph 25.3 mph N/A   Clear
1:55 PM 59.0 °F - 15.8 °F 19% 30.18 in 10.0 mi NNW 17.3 mph 26.5 mph N/A   Clear
2:15 PM 59.0 °F - 15.8 °F 19% 30.18 in 10.0 mi NW 21.9 mph - N/A   Clear
2:35 PM 60.8 °F - 15.8 °F 17% 30.17 in 10.0 mi NW 16.1 mph 23.0 mph N/A   Scattered Clouds
2:54 PM 62.6 °F - 14.0 °F 15% 30.15 in 10.0 mi WNW 20.7 mph 28.8 mph N/A   Scattered Clouds
3:15 PM 62.6 °F - 12.2 °F 14% 30.15 in 10.0 mi WNW 15.0 mph 25.3 mph N/A   Clear
3:35 PM 62.6 °F - 10.4 °F 13% 30.13 in 10.0 mi West 17.3 mph 27.6 mph N/A   Clear
3:54 PM 62.6 °F - 6.8 °F 11% 30.12 in 10.0 mi WNW 24.2 mph 29.9 mph N/A   Clear
4:14 PM 62.6 °F - 1.4 °F 9% 30.12 in 10.0 mi WNW 12.7 mph 28.8 mph N/A   Clear
4:35 PM 62.6 °F - -13.0 °F 4% 30.11 in 10.0 mi West 17.3 mph 35.7 mph N/A   Clear
4:55 PM 62.6 °F - -27.4 °F 4% 30.11 in 10.0 mi WNW 17.3 mph 33.4 mph N/A   Clear
5:15 PM 62.6 °F - -18.4 °F 4% 30.11 in 10.0 mi WNW 20.7 mph 32.2 mph N/A   Clear
5:35 PM 62.6 °F - -9.4 °F 5% 30.11 in 10.0 mi West 24.2 mph 34.5 mph N/A   Clear
5:55 PM 60.8 °F - -11.2 °F 5% 30.11 in 10.0 mi West 18.4 mph 35.7 mph N/A   Clear
6:14 PM 60.8 °F - -11.2 °F 5% 30.11 in 10.0 mi West 25.3 mph 29.9 mph N/A   Clear
6:35 PM 60.8 °F - -7.6 °F 6% 30.11 in 10.0 mi West 21.9 mph 26.5 mph N/A   Clear
6:55 PM 59.0 °F - -7.6 °F 6% 30.10 in 10.0 mi WNW 19.6 mph 24.2 mph N/A   Clear
7:15 PM 57.2 °F - -5.8 °F 8% 30.11 in 10.0 mi WNW 21.9 mph 28.8 mph N/A   Clear
7:35 PM 57.2 °F - -2.2 °F 9% 30.11 in 10.0 mi West 16.1 mph 23.0 mph N/A   Clear
7:54 PM 55.4 °F - 1.4 °F 11% 30.11 in 10.0 mi WNW 9.2 mph 18.4 mph N/A   Clear
8:15 PM 53.6 °F - 6.8 °F 15% 30.12 in 10.0 mi Calm Calm - N/A   Clear
8:35 PM 51.8 °F - 6.8 °F 16% 30.12 in 10.0 mi Calm Calm - N/A   Clear
8:54 PM 48.2 °F - 8.6 °F 20% 30.13 in 10.0 mi Calm Calm - N/A   Clear
9:15 PM 48.2 °F - 10.4 °F 22% 30.13 in 10.0 mi Calm Calm - N/A   Clear
9:35 PM 46.4 °F - 10.4 °F 23% 30.13 in 10.0 mi Calm Calm - N/A   Clear
9:55 PM 46.4 °F - 10.4 °F 23% 30.13 in 10.0 mi Calm Calm - N/A   Clear
10:15 PM 44.6 °F - 10.4 °F 25% 30.13 in 10.0 mi Calm Calm - N/A   Clear
10:35 PM 44.6 °F - 10.4 °F 25% 30.14 in 10.0 mi Calm Calm - N/A   Clear
11:15 PM 42.8 °F - 10.4 °F 27% 30.13 in 10.0 mi Calm Calm - N/A   Clear
11:35 PM 41.0 °F - 12.2 °F 31% 30.13 in 10.0 mi Calm Calm - N/A   Clear
11:55 PM 41.0 °F - 12.2 °F 31% 30.13 in 10.0 mi Calm Calm - N/A   Clear